Oxford, NC

2:49 AM EDT on May 29, 2017 (GMT -0400)
Henderson-Oxford

Weather History for KHNZ - June, 2013

Change the Weather History Date:

Tuesday, June 25, 2013

  Actual Average (KTDF) Record (KTDF)
Temperature  
Mean Temperature 78 °F -  
Max Temperature 88 °F 85 °F 98 °F (2002)
Min Temperature 69 °F 61 °F 49 °F (1972)
Cooling Degree Days 14    
Growing Degree Days 28 (Base 50)    
Moisture  
Dew Point 68 °F    
Average Humidity 74    
Maximum Humidity 93    
Minimum Humidity 48    
Precipitation  
Precipitation 0.00 in - - ()
Sea Level Pressure  
Sea Level Pressure 30.08 in    
Wind  
Wind Speed 7 mph (SW)    
Max Wind Speed 13 mph    
Max Gust Speed 17 mph    
Visibility 10 miles    
Events      
Averages and records for this station are not official NWS values.
T = Trace of Precipitation, MM = Missing Value Source: NWS Daily Summary

Daily Weather History Graph

Daily Weather History Graph

Search for Another Location

Airport or City:

Trip Planner

Search our weather history database for the weather conditions in past years. The results will help you decide how hot, cold, wet, or windy it might be!

Date:

Astronomy

Jun. 25, 2013 Rise Set
Actual Time 5:57 AM EDT 8:35 PM EDT
Civil Twilight 5:27 AM EDT 9:06 PM EDT
Nautical Twilight 4:49 AM EDT 9:44 PM EDT
Astronomical Twilight 4:07 AM EDT 10:26 PM EDT
Moon 10:25 PM EDT (6/25) 8:30 AM EDT (6/25)
Length of Visible Light 15h 39m
Length of Day
14h 38m
Waning Gibbous, 93% of the Moon is Illuminated
Jun 25
Waning Gibbous
Jun 30
Last Quarter
Jul 8
New
Jul 15
First Quarter
Jul 22
Full

Hourly Weather History & Observations

Time (EDT) Temp. Heat Index Dew Point Humidity Pressure Visibility Wind Dir Wind Speed Gust Speed Precip Events Conditions
12:15 AM 73.8 °F - 68.5 °F 84% 30.13 in 10.0 mi SW 6.9 mph - N/A   Clear
12:35 AM 73.4 °F - 68.5 °F 85% 30.13 in 10.0 mi SSW 6.9 mph - N/A   Clear
12:55 AM 73.0 °F - 68.5 °F 86% 30.12 in 10.0 mi SW 6.9 mph - N/A   Clear
1:15 AM 72.5 °F - 68.9 °F 88% 30.12 in 10.0 mi SSW 6.9 mph - N/A   Clear
1:35 AM 72.5 °F - 68.7 °F 88% 30.12 in 10.0 mi SSW 8.1 mph - N/A   Clear
1:55 AM 72.1 °F - 68.0 °F 87% 30.12 in 10.0 mi SSW 6.9 mph - N/A   Clear
2:15 AM 71.8 °F - 67.6 °F 87% 30.12 in 10.0 mi SSW 8.1 mph - N/A   Clear
2:35 AM 71.6 °F - 67.5 °F 87% 30.12 in 10.0 mi SSW 6.9 mph - N/A   Clear
2:55 AM 71.2 °F - 67.3 °F 87% 30.12 in 10.0 mi SSW 8.1 mph - N/A   Clear
3:15 AM 70.7 °F - 67.1 °F 88% 30.11 in 10.0 mi SSW 6.9 mph - N/A   Clear
3:35 AM 70.7 °F - 67.1 °F 88% 30.11 in 10.0 mi SSW 9.2 mph - N/A   Clear
3:55 AM 70.7 °F - 67.1 °F 88% 30.11 in 10.0 mi SSW 8.1 mph - N/A   Clear
4:15 AM 70.7 °F - 67.3 °F 89% 30.11 in 10.0 mi SSW 9.2 mph - N/A   Clear
4:35 AM 70.7 °F - 67.1 °F 88% 30.10 in 10.0 mi SSW 9.2 mph - N/A   Clear
4:55 AM 70.2 °F - 67.1 °F 90% 30.10 in 10.0 mi SSW 8.1 mph - N/A   Clear
5:15 AM 69.8 °F - 66.9 °F 91% 30.10 in 10.0 mi SSW 8.1 mph - N/A   Clear
5:35 AM 69.8 °F - 66.7 °F 90% 30.11 in 10.0 mi SSW 9.2 mph - N/A   Clear
5:55 AM 69.4 °F - 66.9 °F 92% 30.11 in 10.0 mi SSW 8.1 mph - N/A   Clear
6:15 AM 69.4 °F - 67.1 °F 92% 30.11 in 10.0 mi SW 6.9 mph - N/A   Clear
6:35 AM 69.8 °F - 67.3 °F 92% 30.11 in 7.0 mi SW 8.1 mph - N/A   Scattered Clouds
6:55 AM 70.2 °F - 68.0 °F 93% 30.11 in 7.0 mi SSW 6.9 mph - N/A   Scattered Clouds
7:15 AM 70.9 °F - 68.2 °F 91% 30.10 in 7.0 mi SSW 9.2 mph - N/A   Mostly Cloudy
7:35 AM 71.8 °F - 68.4 °F 89% 30.10 in 10.0 mi SSW 10.4 mph - N/A   Scattered Clouds
7:55 AM 72.7 °F - 68.7 °F 87% 30.09 in 10.0 mi SSW 8.1 mph - N/A   Clear
8:15 AM 73.4 °F - 68.9 °F 86% 30.10 in 10.0 mi SW 6.9 mph - N/A   Clear
8:35 AM 73.9 °F - 69.3 °F 85% 30.10 in 10.0 mi SW 8.1 mph - N/A   Clear
8:55 AM 75.9 °F - 69.1 °F 79% 30.11 in 10.0 mi WSW 8.1 mph - N/A   Scattered Clouds
9:15 AM 77.2 °F - 69.8 °F 78% 30.11 in 10.0 mi SW 9.2 mph - N/A   Scattered Clouds
9:35 AM 77.9 °F - 69.3 °F 75% 30.11 in 10.0 mi WSW 4.6 mph - N/A   Clear
9:55 AM 79.2 °F - 70.2 °F 74% 30.11 in 10.0 mi WSW 9.2 mph - N/A   Clear
10:15 AM 80.2 °F 83.6 °F 70.3 °F 72% 30.11 in 10.0 mi SSW 9.2 mph - N/A   Scattered Clouds
10:35 AM 81.0 °F 84.6 °F 70.3 °F 70% 30.11 in 10.0 mi WSW 8.1 mph - N/A   Scattered Clouds
10:55 AM 82.0 °F 86.1 °F 70.7 °F 68% 30.11 in 10.0 mi SW 9.2 mph - N/A   Scattered Clouds
11:15 AM 82.6 °F 86.8 °F 70.7 °F 67% 30.11 in 10.0 mi SW 8.1 mph - N/A   Scattered Clouds
11:35 AM 82.9 °F 87.2 °F 70.7 °F 66% 30.11 in 10.0 mi WSW 4.6 mph - N/A   Clear
11:55 AM 83.5 °F 88.2 °F 71.2 °F 66% 30.11 in 10.0 mi WSW 6.9 mph - N/A   Scattered Clouds
12:15 PM 84.0 °F 88.4 °F 70.3 °F 63% 30.11 in 10.0 mi West 8.1 mph - N/A   Scattered Clouds
12:35 PM 85.1 °F 90.1 °F 70.9 °F 62% 30.11 in 10.0 mi West 4.6 mph - N/A   Scattered Clouds
12:55 PM 85.3 °F 90.4 °F 70.7 °F 62% 30.11 in 10.0 mi WSW 5.8 mph - N/A   Scattered Clouds
1:15 PM 86.2 °F 91.1 °F 70.2 °F 59% 30.10 in 10.0 mi SW 5.8 mph - N/A   Scattered Clouds
1:35 PM 86.7 °F 91.7 °F 70.2 °F 58% 30.09 in 10.0 mi SW 6.9 mph - N/A   Mostly Cloudy
1:55 PM 86.7 °F 90.3 °F 68.4 °F 54% 30.08 in 10.0 mi SW 6.9 mph - N/A   Mostly Cloudy
2:15 PM 87.8 °F 91.4 °F 68.4 °F 52% 30.07 in 10.0 mi WSW 5.8 mph - N/A   Scattered Clouds
2:35 PM 87.8 °F 91.4 °F 68.0 °F 52% 30.06 in 10.0 mi SW 5.8 mph - N/A   Scattered Clouds
2:55 PM 87.8 °F 90.0 °F 65.8 °F 48% 30.05 in 10.0 mi SW 4.6 mph - N/A   Scattered Clouds
3:15 PM 88.2 °F 90.9 °F 66.7 °F 49% 30.04 in 10.0 mi SW 8.1 mph - N/A   Clear
3:35 PM 88.5 °F 91.2 °F 66.7 °F 48% 30.04 in 10.0 mi SW 6.9 mph - N/A   Scattered Clouds
3:55 PM 88.2 °F 90.9 °F 66.9 °F 49% 30.03 in 10.0 mi SSW 9.2 mph - N/A   Scattered Clouds
4:15 PM 87.4 °F 90.5 °F 67.3 °F 51% 30.04 in 10.0 mi SW 6.9 mph - N/A   Scattered Clouds
4:35 PM 87.3 °F 90.9 °F 68.0 °F 53% 30.04 in 10.0 mi SW 6.9 mph - N/A   Clear
4:55 PM 87.1 °F 90.2 °F 67.6 °F 52% 30.04 in 10.0 mi SSW 8.1 mph - N/A   Clear
5:15 PM 87.3 °F 89.8 °F 66.6 °F 50% 30.03 in 10.0 mi SSW 5.8 mph - N/A   Clear
5:35 PM 87.8 °F 91.1 °F 67.6 °F 51% 30.02 in 10.0 mi SW 6.9 mph - N/A   Clear
5:55 PM 87.3 °F 90.9 °F 68.4 °F 53% 30.02 in 10.0 mi South 4.6 mph - N/A   Scattered Clouds
6:15 PM 85.3 °F 90.4 °F 71.1 °F 62% 30.01 in 10.0 mi South 4.6 mph - N/A   Mostly Cloudy
6:35 PM 81.9 °F 85.8 °F 70.3 °F 68% 30.01 in 10.0 mi South 10.4 mph 17.3 mph N/A   Overcast
6:55 PM 81.0 °F 84.7 °F 70.7 °F 71% 30.01 in 10.0 mi SSW 12.7 mph 16.1 mph N/A   Scattered Clouds
7:15 PM 80.6 °F 84.1 °F 70.5 °F 71% 30.01 in 10.0 mi SSW 10.4 mph - N/A   Clear
7:35 PM 79.7 °F - 70.5 °F 73% 30.00 in 10.0 mi SSW 6.9 mph - N/A   Clear
7:55 PM 79.0 °F - 69.8 °F 73% 30.01 in 10.0 mi SSW 6.9 mph - N/A   Clear
8:15 PM 78.3 °F - 67.3 °F 69% 30.02 in 10.0 mi SSW 6.9 mph - N/A   Clear
8:35 PM 77.2 °F - 65.8 °F 68% 30.02 in 10.0 mi SSW 8.1 mph - N/A   Clear
8:55 PM 76.3 °F - 65.7 °F 70% 30.03 in 10.0 mi SSW 10.4 mph - N/A   Clear
9:15 PM 75.7 °F - 65.7 °F 71% 30.03 in 10.0 mi SSW 6.9 mph - N/A   Clear
9:35 PM 75.2 °F - 66.2 °F 73% 30.04 in 10.0 mi SSW 6.9 mph - N/A   Clear
9:55 PM 74.7 °F - 66.2 °F 75% 30.04 in 10.0 mi SSW 6.9 mph - N/A   Clear
10:15 PM 74.3 °F - 66.4 °F 76% 30.04 in 10.0 mi SSW 5.8 mph - N/A   Clear
10:35 PM 72.9 °F - 66.7 °F 81% 30.05 in 10.0 mi SW 5.8 mph - N/A   Clear
10:55 PM 73.6 °F - 67.1 °F 80% 30.04 in 10.0 mi SSW 5.8 mph - N/A   Clear
11:15 PM 72.9 °F - 67.3 °F 83% 30.04 in 10.0 mi SSW 6.9 mph - N/A   Clear
11:35 PM 73.4 °F - 67.3 °F 81% 30.04 in 10.0 mi SSW 8.1 mph - N/A   Clear
11:55 PM 72.9 °F - 67.1 °F 82% 30.04 in 10.0 mi SSW 8.1 mph - N/A   Clear